Hourly Data Report for November 06, 2017

All times are specified in Local Standard Time (LST). Add 1 hour to adjust for Daylight Saving Time where and when it is observed.

BATHURST A
NEW BRUNSWICK

47°37'47.000" N
65°44'20.000" W
58.80 m
8100505
71574
ZBF

Download Data

Hourly Data (November 2017)
Hourly Data Report for November 6, 2017
Temp Definition
°C
Dew Point Temp Definition
°C
Rel Hum Definition
%
Wind Dir Definition
10's deg

Wind Spd Definition
km/h
Visibility Definition
km
Stn Press Definition
kPa
Hmdx Definition


Wind Chill Definition


Weather Definition


TIME
00:00 Legend Double Dagger 4.7 0.9 77 20 16 11.3 101.19     LegendNANA
01:00 Legend Double Dagger 5.4 2.8 83 19 17 11.3 101.03     LegendNANA
02:00 Legend Double Dagger 6.8 5.0 88 19 16 11.3 100.85     Cloudy
03:00 Legend Double Dagger 8.1 7.0 93 20 20 11.3 100.67     LegendNANA
04:00 Legend Double Dagger 9.7 8.6 93 19 25 6.4 100.50     Drizzle,Fog
05:00 Legend Double Dagger 10.8 9.8 94 19 22 6.4 100.38     Drizzle,Fog
06:00 Legend Double Dagger 11.4 10.6 95 19 23 4.8 100.18     Drizzle,Fog
07:00 Legend Double Dagger 12.2 11.5 95 19 20 4.8 100.06     Drizzle,Fog
08:00 Legend Double Dagger 13.2 12.4 94 19 18 2.4 100.00     Rain,Fog
09:00 Legend Double Dagger 14.2 13.2 94 20 25 3.2 99.83     Rain,Fog
10:00 Legend Double Dagger 14.8 14.0 95 20 21 16.1 99.77     LegendNANA
11:00 Legend Double Dagger 15.6 14.6 94 21 12 16.1 99.75     Cloudy
12:00 Legend Double Dagger 16.1 15.1 94 21 15 16.1 99.66     LegendNANA
13:00 Legend Double Dagger 16.7 15.5 93 21 12 12.9 99.63     LegendNANA
14:00 Legend Double Dagger 16.6 15.3 92 20 9 16.1 99.61     Rain
15:00 Legend Double Dagger 16.4 14.8 90 21 10 16.1 99.58     Rain
16:00 Legend Double Dagger 16.0 14.6 92 22 9 16.1 99.65     LegendNANA
17:00 Legend Double Dagger 10.9 9.5 91 31 15 8.1 99.80     Rain
18:00 Legend Double Dagger 10.0 7.6 85 32 9 16.1 99.91     LegendNANA
19:00 Legend Double Dagger 8.1 5.1 81 32 18 16.1 100.10     LegendNANA
20:00 Legend Double Dagger 6.2 2.4 76 31 19 24.1 100.24     Cloudy
21:00 Legend Double Dagger 4.2 -1.1 68 31 20 24.1 100.35     LegendNANA
22:00 Legend Double Dagger 3.5 -2.0 67 31 13 24.1 100.43     LegendNANA
23:00 Legend Double Dagger 3.1 -1.9 70 31 7 24.1 100.52     Cloudy

Notes on Data Quality.

Legend

  • E = Estimated
  • M = Missing
  • NA = Not Available
  • ‡ = Partner data that is not subject to review by the National Climate Archives
Date modified: